Location: Bremen
(53.0793°N, 8.8017°E)
Time: 00:47:07
(UTC+01:00)

Vanguard 1 - Visible Passes

Search period start: 28 November 2021 00:00
Search period end: 08 December 2021 00:00
Orbit: 653 x 3830 km, 34.3° (Epoch: 27 November)

Date Brightness Start Highest point End Pass type
(mag) Time Alt. Az. Time Alt. Az. Time Alt. Az.
28 Nov 13.1 02:18:29 34° SSE 02:18:29 34° SSE 02:30:02 10° ESE visible
28 Nov 12.8 04:31:11 31° SW 04:38:08 39° S 04:50:03 10° SE visible
28 Nov 12.9 06:46:07 10° W 06:58:44 25° SSW 07:07:11 10° SSE visible
29 Nov 13.8 00:25:26 15° ESE 00:25:26 15° ESE 00:28:11 10° E visible
29 Nov 13.0 02:38:07 38° SSE 02:38:07 38° SSE 02:50:55 10° ESE visible
29 Nov 12.8 04:50:49 28° SW 04:58:44 38° SSW 05:10:26 10° SE visible
29 Nov 13.1 07:07:46 10° W 07:18:51 21° SW 07:26:41 10° S visible
30 Nov 13.7 00:45:02 19° ESE 00:45:02 19° ESE 00:49:44 10° E visible
30 Nov 13.0 02:57:43 41° S 02:57:43 41° S 03:11:40 10° ESE visible
30 Nov 12.9 05:10:25 25° WSW 05:19:14 36° SSW 05:30:41 10° SE visible
30 Nov 13.2 07:29:50 10° W 07:38:52 17° SW 07:45:40 10° S visible
01 Dec 13.6 01:04:37 24° ESE 01:04:37 24° ESE 01:10:59 10° E visible
01 Dec 12.9 03:17:19 42° S 03:17:47 42° S 03:32:19 10° ESE visible
01 Dec 12.9 05:30:01 22° WSW 05:39:39 33° SSW 05:50:46 10° SSE visible
02 Dec 13.4 01:24:13 28° ESE 01:24:13 28° ESE 01:32:02 10° ESE visible
02 Dec 12.9 03:36:54 41° SSW 03:38:29 42° S 03:52:51 10° ESE visible
02 Dec 13.0 05:49:36 18° WSW 05:59:57 29° SSW 06:10:38 10° SSE visible
03 Dec 13.3 01:43:48 32° SE 01:43:48 32° SE 01:52:57 10° ESE visible
03 Dec 12.9 03:56:29 40° SSW 03:59:07 41° SSW 04:13:16 10° SE visible
03 Dec 13.1 06:09:11 15° WSW 06:20:06 25° SW 06:30:11 10° S visible
03 Dec 14.0 23:50:41 10° E 23:50:41 10° E 23:50:50 10° E visible
04 Dec 13.2 02:03:23 36° SE 02:03:23 36° SE 02:13:45 10° ESE visible
04 Dec 12.9 04:16:04 37° SW 04:19:41 39° SSW 04:33:33 10° SE visible
04 Dec 13.3 06:28:47 11° W 06:40:07 21° SW 06:49:18 10° S visible
05 Dec 13.9 00:10:17 14° ESE 00:10:17 14° ESE 00:12:08 10° E visible
05 Dec 13.1 02:22:59 39° SSE 02:22:59 39° SSE 02:34:26 10° ESE visible
05 Dec 13.0 04:35:41 33° SW 04:40:08 36° SSW 04:53:38 10° SSE visible
05 Dec 13.4 06:50:19 10° W 07:00:00 16° SW 07:07:42 10° SSW visible
06 Dec 13.8 00:29:54 17° ESE 00:29:54 17° ESE 00:33:14 10° E visible
06 Dec 13.1 02:42:36 40° SSE 02:42:36 40° SSE 02:55:01 10° ESE visible
06 Dec 13.1 04:55:18 29° SW 05:00:29 32° SSW 05:13:30 10° SSE visible
06 Dec 13.6 07:14:28 10° WSW 07:19:46 12° WSW 07:24:26 10° SW visible
07 Dec 13.7 00:49:32 21° ESE 00:49:32 21° ESE 00:54:12 10° ESE visible
07 Dec 13.0 03:02:14 41° S 03:02:14 41° S 03:15:28 10° SE visible
07 Dec 13.2 05:14:56 25° WSW 05:20:41 28° SW 05:33:05 10° SSE visible
07 Dec14.022:56:29E22:56:29E22:15:34SSWvisible
